TimeEST,TemperatureF,Dew PointF,Humidity,Sea Level PressureIn,VisibilityMPH,Wind Direction,Wind SpeedMPH,Gust SpeedMPH,PrecipitationIn,Events,Conditions,WindDirDegrees,DateUTC
12:54 AM,48.0,30.9,52,29.95,10.0,WSW,8.1,-,N/A,,Scattered Clouds,240,2013-02-06 05:54:00
1:54 AM,43.0,30.9,62,29.95,10.0,SW,3.5,-,N/A,,Partly Cloudy,230,2013-02-06 06:54:00
2:54 AM,44.1,30.9,60,29.96,10.0,West,4.6,-,N/A,,Partly Cloudy,280,2013-02-06 07:54:00
3:54 AM,36.0,30.0,79,29.99,10.0,NNW,5.8,-,N/A,,Clear,330,2013-02-06 08:54:00
4:54 AM,37.0,30.0,76,30.01,10.0,Calm,Calm,-,N/A,,Clear,0,2013-02-06 09:54:00
5:54 AM,35.1,30.0,82,30.05,10.0,Calm,Calm,-,N/A,,Mostly Cloudy,0,2013-02-06 10:54:00
6:54 AM,30.9,27.0,85,30.07,10.0,North,4.6,-,N/A,,Partly Cloudy,10,2013-02-06 11:54:00
7:54 AM,34.0,30.0,85,30.12,8.0,Calm,Calm,-,N/A,,Partly Cloudy,0,2013-02-06 12:54:00
8:54 AM,39.9,30.9,70,30.16,9.0,Calm,Calm,-,N/A,,Partly Cloudy,0,2013-02-06 13:54:00
9:54 AM,46.0,32.0,58,30.17,10.0,ENE,5.8,-,N/A,,Partly Cloudy,70,2013-02-06 14:54:00
10:54 AM,50.0,33.1,52,30.19,10.0,NNE,6.9,-,N/A,,Partly Cloudy,30,2013-02-06 15:54:00
11:54 AM,51.1,32.0,48,30.18,10.0,Variable,4.6,-,N/A,,Scattered Clouds,0,2013-02-06 16:54:00
12:54 PM,54.0,32.0,43,30.17,10.0,North,8.1,-,N/A,,Partly Cloudy,360,2013-02-06 17:54:00
1:54 PM,55.0,30.9,40,30.18,10.0,North,9.2,-,N/A,,Scattered Clouds,360,2013-02-06 18:54:00
2:54 PM,55.0,28.9,37,30.17,10.0,Calm,Calm,-,N/A,,Partly Cloudy,0,2013-02-06 19:54:00
3:54 PM,57.0,27.0,32,30.19,10.0,North,8.1,-,N/A,,Partly Cloudy,350,2013-02-06 20:54:00
4:54 PM,54.0,28.0,37,30.19,10.0,North,6.9,-,N/A,,Partly Cloudy,10,2013-02-06 21:54:00
5:54 PM,50.0,28.9,44,30.22,10.0,ENE,5.8,-,N/A,,Clear,60,2013-02-06 22:54:00
6:54 PM,45.0,33.1,63,30.25,10.0,East,8.1,-,N/A,,Clear,90,2013-02-06 23:54:00
7:54 PM,42.1,32.0,67,30.30,10.0,East,8.1,-,N/A,,Clear,80,2013-02-07 00:54:00
8:54 PM,39.9,30.0,68,30.34,10.0,East,3.5,-,N/A,,Clear,90,2013-02-07 01:54:00
9:54 PM,37.9,30.0,73,30.35,10.0,ENE,3.5,-,N/A,,Clear,70,2013-02-07 02:54:00
10:54 PM,36.0,28.9,76,30.35,10.0,East,4.6,-,N/A,,Clear,90,2013-02-07 03:54:00
11:54 PM,36.0,28.0,73,30.36,10.0,East,6.9,-,N/A,,Clear,80,2013-02-07 04:54:00